Location: Gombori
(14.9797°N, 2.9419°W)
Time: 22:21:37
(UTC+00:00)

ERS-2 - Pass Details

Date: 29 July 2021
Orbit: 490 x 496 km, 98.5° (Epoch: 20 September)

Event Time Altitude Azimuth Distance (km) Brightness Sun altitude
Rises 20:08:53 0° 14° (NNE) 2,565 5.9 -20.1°
Reaches altitude 10° 20:10:57 10° 15° (NNE) 1,681 4.9 -20.5°
Enters shadow 20:14:24 76° 61° (ENE) 508 1.9 -21.2°
